Flag for Germany Weather past 2 weeks in Kaiserslautern, Rhineland-Palatinate, Germany

Now
54 °F

Mostly cloudy.


Feels Like: 54 °F
Forecast: 36 / 56 °F
Wind: 3 mph from East

Location: Ramstein

Current Time: Oct 26, 2014 at 10:53:22 AM

Latest Report: Oct 26, 2014 at 9:58 AM


Visibility: N/A

Pressure: 30.32 "Hg

Humidity: 90%

Dew point: 51 °F

Location of KaiserslauternLocation

Historic Weather in Kaiserslautern — Graph

°F

Kaiserslautern temperature yesterday

Maximum temperature yesterday: 58 °F (at 4:58 PM)
Minimum temperature yesterday: 46 °F (at 12:58 AM)
Average temperature yesterday: 52 °F

Past Weeks' High & Low Weather Summary

 TemperatureHumidityPressure
High73 °F (Oct 19, 3:58 PM)100% (Oct 11, 10:03 AM)30.32 "Hg (Oct 11, 10:03 AM)
Low32 °F (Oct 24, 7:58 AM)42% (Oct 24, 2:58 PM)29.64 "Hg (Oct 21, 4:58 PM)
Average53 °F82%30.00 "Hg
* Reported Oct 11 9:58 AM — Oct 26 8:58 AM, Kaiserslautern, Weather by CustomWeather, © 2014

Note: Actual official high and low records may vary slightly from our data, if they occured in-between our weather recording intervals... More about our weather records

Advertising

Kaiserslautern weather history for previous 24 hours

 ConditionsComfort  
Time TempWeatherWind HumidityBarometerVisibility
8:58 AM
Oct 26
53 °FCloudy.1 mph95%30.32 "HgN/A
7:58 AM52 °FOvercast.No wind100%30.31 "HgN/A
6:58 AM52 °FOvercast.2 mph94%30.29 "HgN/A
5:58 AM52 °FFog.No wind94%30.28 "Hg5 mi
4:58 AM52 °FOvercast.No wind96%30.28 "HgN/A
4:02 AM52 °FOvercast.No wind94%30.26 "HgN/A
3:58 AM52 °FMostly cloudy.No wind94%30.27 "HgN/A
2:58 AM53 °FOvercast.2 mph88%30.26 "HgN/A
2:58 AM52 °FOvercast.No wind94%30.27 "HgN/A
1:58 AM54 °FOvercast.1 mph88%30.26 "HgN/A
12:58 AM54 °FOvercast.2 mph82%30.25 "HgN/A
11:58 PM
Oct 25
53 °FOvercast.2 mph88%30.24 "HgN/A
11:01 PM52 °FMostly cloudy.No wind88%30.22 "HgN/A
9:58 PM54 °FMostly cloudy.No wind82%30.22 "HgN/A
8:58 PM54 °FOvercast.No wind82%30.20 "HgN/A
7:58 PM54 °FMostly cloudy.No wind81%30.19 "HgN/A
6:58 PM55 °FMostly cloudy.1 mph77%30.19 "HgN/A
5:58 PM57 °FOvercast.1 mph72%30.17 "HgN/A
4:59 PM57 °FMostly cloudy.7 mph67%30.15 "HgN/A
4:58 PM58 °FMore clouds than sun.6 mph67%30.16 "HgN/A
3:58 PM58 °FMostly cloudy.3 mph66%30.15 "HgN/A
2:58 PM57 °FOvercast.3 mph67%30.15 "HgN/A
2:04 PM57 °FLight rain. Overcast.No wind67%30.14 "HgN/A
1:58 PM56 °FOvercast.2 mph68%30.15 "HgN/A
12:58 PM55 °FOvercast.7 mph69%30.15 "HgN/A
11:58 AM54 °FOvercast.5 mph70%30.15 "HgN/A
10:58 AM52 °FPartly sunny.7 mph77%30.16 "HgN/A
Weather by CustomWeather, © 2014

See weather overviewHow to use our weather pages